Regional Weather Roundup
Issued by NWS State College, PA

Home | Current Version | Previous Version | Graphics & Text | Print | Product List | Glossary Off
Versions: 1 2 3 4 5 6 7 8 9 10 11 12 13 14 15 16 17 18 19 20 21 22 23 24 25 26 27 28 29 30 31 32 33 34 35 36 37 38 39 40 41 42 43 44 45 46 47 48 49 50

000
ASUS41 KCTP 111810
RWRCTP

REGIONAL WEATHER ROUNDUP
NATIONAL WEATHER SERVICE STATE COLLEGE PA
200 PM EDT FRI JUL 11 2014

Note: "fair" indicates few or no clouds below 12,000 feet with no
significant weather and/or obstructions to visibility.

* = STATION THAT DOES NOT REPORT PRECIPITATION /E.G. RAIN...SNOW...ETC/
    THUNDER OR FOG.

PAZ002>004-007>009-013>016-020>023-029>032-111900-
WESTERN PENNSYLVANIA

CITY           SKY/WX    TMP DP  RH WIND       PRES   REMARKS
ERIE           SUNNY     75  60  59 N9        30.23F
MEADVILLE      PTSUNNY   77  54  44 CALM      30.24S
FRANKLIN*      MOSUNNY   79  57  47 CALM      30.25S
NEW CASTLE       N/A     81  60  48 CALM      30.23S
BEAVER COUNTY  CLOUDY    79  57  47 CALM      30.23S
BUTLER*        PTSUNNY   81  61  50 N5        30.24S
PITTSBURGH INT MOSUNNY   80  58  46 SW3       30.21F
PITTSBURGH     PTSUNNY   79  57  46 CALM      30.20F
INDIANA*       SUNNY     81  55  41 S5        30.26F
LATROBE        MOSUNNY   81  59  47 VRB6      30.22F
WASHINGTON CO* MOSUNNY   82  57  42 SE3       30.23R
$$

PAZ004>006-010>012-017>019-024>028-033>037-041-042-045-046-049>053-111900-
CENTRAL PENNSYLVANIA

CITY           SKY/WX    TMP DP  RH WIND       PRES   REMARKS
BRADFORD       PTSUNNY   75  52  44 CALM      30.26F
DUBOIS         MOSUNNY   80  56  43 SW8       30.23F
CLEARFIELD     PTSUNNY   78  57  48 E5        30.24F
JOHNSTOWN      PTSUNNY   75  60  59 SE8       30.26F
ALTOONA        MOSUNNY   78  62  57 CALM      30.25F
STATE COLLEGE  PTSUNNY   79  61  53 VRB5      30.24F
WILLIAMSPORT   MOSUNNY   82  58  43 CALM      30.20F
SELINSGROVE    MOSUNNY   81  61  50 CALM      30.21F
FT INDIANTOWN  MOSUNNY   82  70  66 SE2       30.21S
CAPITAL CITY   SUNNY     81  62  52 E6        30.20S
HARRISBURG     PTSUNNY   86  64  47 S5        30.19F
YORK           MOSUNNY   81  62  52 SE3       30.20F
$$

PAZ038>040-043-044-047-048-054-055-060>062-067>071-111900-
EASTERN PENNSYLVANIA

CITY           SKY/WX    TMP DP  RH WIND       PRES   REMARKS
SCRANTON       MOSUNNY   81  55  40 NE6       30.22F
MOUNT POCONO   CLOUDY    74  54  49 CALM      30.26F
ALLENTOWN      SUNNY     83  60  45 NE6       30.20F
QUAKERTOWN*    PTCLDY    82  61  47 NE3       30.21F
READING        MOSUNNY   85  62  46 CALM      30.19F
LANCASTER      MOSUNNY   82  63  52 CALM      30.20F
COATESVILLE    PTCLDY    81  64  57 NE3       30.22S
POTTSTOWN      SUNNY     84  63  49 CALM      30.20F
BLUE BELL      SUNNY     86  61  42 CALM      30.18F
DOYLESTOWN     SUNNY     83  61  47 NE5       30.19F
WILLOW GROVE   NOT AVBL
NORTH PHILA    PTSUNNY   86  58  38 VRB5      30.19F
PHILADELPHIA   PTSUNNY   87  61  41 E9        30.17F
$$



USA.gov is the U.S. government's official web portal to all federal, state and local government web resources and services.